[[{"header":{"parameterUnit":"m.s-1","parameterCategory":1,"la1":30.2992,"la2":30.254,"lo1":-89.0895,"lo2":-89.0443,"dy":0.0025,"dx":0.0025,"nx":19,"ny":19,"refTime":"2026-04-07T09:00:00:Z","depth":0,"parameterNumber":2,"parameterNumberName":"U-component_of_WINDS"},"data":[0,0,0,-2.3447,-2.3451,-2.3613,-2.3613,-2.3845,-2.3847,0,0,0,0,0,0,0,0,0,0,0,-2.3414,-2.3416,-2.3447,-2.3451,-2.3612,-2.3613,-2.3844,-2.3847,0,0,0,0,0,0,0,0,0,0,0,-2.3413,-2.3416,-2.3418,-2.3452,-2.3612,-2.3613,-2.3844,-2.3713,0,0,0,0,0,0,0,0,0,0,-2.3552,-2.3536,-2.3415,-2.3419,-2.3453,-2.3612,-2.3613,-2.3706,-2.3721,-2.3782,0,-2.384,0,-2.3847,-2.3864,-2.3865,0,0,0,-2.344,-2.3524,-2.3554,-2.3419,-2.3455,-2.3612,-2.3537,-2.3714,-2.3731,-2.3802,-2.3843,-2.3851,-2.3851,-2.3866,-2.3867,-2.4255,-2.4257,0,0,-2.3432,-2.3452,-2.3542,-2.3566,-2.3542,-2.3532,-2.3542,-2.3724,-2.3771,-2.3844,-2.3856,-2.3855,-2.3867,-2.3869,-2.4253,-2.4256,0,0,0,-2.3413,-2.3446,-2.3471,-2.3557,-2.3584,-2.3537,-2.3548,-2.3762,-2.3769,-2.3858,-2.3858,-2.3869,-2.3872,-2.425,-2.4254,-2.4391,0,0,0,-2.3407,-2.3435,-2.3467,-2.3482,-2.3581,-2.3675,-2.3583,-2.3756,-2.3776,-2.3857,-2.3869,-2.3875,-2.4248,-2.4252,-2.4382,-2.4455,0,0,0,-2.3399,-2.3434,-2.3462,-2.3482,-2.3552,-2.3672,-2.3688,-2.376,-2.3776,-2.3865,-2.3875,-2.4246,-2.4251,-2.4374,-2.4441,-2.4565,0,0,0,-2.3396,-2.3581,-2.3465,-2.3672,-2.3551,-2.3754,-2.3687,-2.3837,-2.3929,-2.387,-2.4248,-2.4254,-2.4371,-2.4432,-2.4557,-2.4677,-2.4728,0,0,-2.3642,-2.3612,-2.3732,-2.3632,-2.3862,-2.3728,-2.3977,-2.4042,-2.4031,-2.4181,-2.419,-2.4385,-2.444,-2.4563,-2.4998,-2.5039,0,0,0,-2.3817,-2.3904,-2.396,-2.4049,-2.4102,-2.4155,-2.4179,-2.4203,-2.4329,-2.4112,-2.446,-2.4492,-2.4564,-2.4621,-2.4656,-2.4718,-2.4279,-2.4279,-2.4278,-2.4198,-2.4173,-2.4371,-2.4367,-2.4453,-2.4475,-2.4544,-2.458,-2.453,-2.4612,-2.4659,-2.4926,-2.4993,-2.5019,-2.5083,-2.4716,-2.4717,-2.4717,-2.4718,-2.456,-2.4681,-2.4608,-2.4775,-2.4748,-2.4888,-2.4916,-2.4875,-2.5002,-2.4888,-2.4951,-2.4833,-2.5064,-2.512,-2.4728,-2.4726,-2.4725,-2.4724,-2.4723,-2.4811,-2.4865,-2.4889,-2.5015,-2.5114,-2.5101,-2.5227,-2.5196,-2.5168,-2.5229,-2.5277,-2.5275,-2.5272,-2.5253,-2.5254,-2.5255,-2.5256,-2.5256,-2.5257,-2.5064,-2.5087,-2.5197,-2.5268,-2.5321,-2.5386,-2.5409,-2.546,-2.551,-2.5478,-2.5478,-2.5423,-2.5089,-2.5009,-2.5271,-2.5269,-2.5267,-2.5266,-2.5265,-2.5449,-2.5357,-2.5527,-2.558,-2.5661,-2.5763,-2.572,-2.5827,-2.5865,-2.5928,-2.5857,-2.5613,-2.5582,-2.5554,-2.5488,-2.5859,-2.5859,-2.5859,-2.5859,-2.5666,-2.5644,-2.5811,-2.5899,-2.598,-2.5958,-2.6152,-2.617,-2.6175,-2.6197,-2.6137,-2.6045,-2.6018,-2.6002,-2.5965,-2.5903,-2.6371,-2.6372,-2.6372,-2.5903,-2.5888,-2.606,-2.6062,-2.6123,-2.6176,-2.6358,-2.6461,-2.6446,-2.6392,-2.6215,-2.6193,-2.6043,-2.5995,-2.5943,-2.5886,-2.5771,0,0]},{"header":{"parameterUnit":"m.s-1","parameterCategory":1,"la1":30.2992,"la2":30.254,"lo1":-89.0895,"lo2":-89.0443,"dy":0.0025,"dx":0.0025,"nx":19,"ny":19,"refTime":"2026-04-07T09:00:00:Z","depth":0,"parameterNumber":3,"parameterNumberName":"V-component_of_WINDS"},"data":[0,0,0,-5.0114,-5.0117,-5.0238,-5.0238,-5.0404,-5.0406,0,0,0,0,0,0,0,0,0,0,0,-5.0089,-5.009,-5.0114,-5.0117,-5.0238,-5.0238,-5.0404,-5.0406,0,0,0,0,0,0,0,0,0,0,0,-5.0088,-5.009,-5.0092,-5.0118,-5.0238,-5.0238,-5.0404,-5.0308,0,0,0,0,0,0,0,0,0,0,-5.0188,-5.0176,-5.009,-5.0092,-5.0119,-5.0238,-5.0238,-5.0303,-5.0314,-5.0356,0,-5.0399,0,-5.0406,-5.0418,-5.0419,0,0,0,-5.0108,-5.0167,-5.019,-5.0092,-5.012,-5.0238,-5.0181,-5.0309,-5.0321,-5.037,-5.0401,-5.0407,-5.0408,-5.0419,-5.042,-5.0699,-5.0701,0,0,-5.0102,-5.0116,-5.0182,-5.0199,-5.0185,-5.0177,-5.0185,-5.0316,-5.0349,-5.0402,-5.0411,-5.0411,-5.0421,-5.0422,-5.0698,-5.07,0,0,0,-5.0089,-5.0111,-5.0131,-5.0193,-5.0214,-5.0181,-5.019,-5.0344,-5.0349,-5.0412,-5.0413,-5.0422,-5.0424,-5.0696,-5.0699,-5.0797,0,0,0,-5.0084,-5.0104,-5.0129,-5.0138,-5.0212,-5.0281,-5.0215,-5.034,-5.0354,-5.0412,-5.0422,-5.0426,-5.0694,-5.0697,-5.079,-5.0841,0,0,0,-5.0077,-5.0103,-5.0124,-5.0139,-5.0192,-5.0278,-5.0291,-5.0343,-5.0355,-5.0419,-5.0426,-5.0693,-5.0697,-5.0784,-5.0831,-5.0918,0,0,0,-5.0073,-5.021,-5.0126,-5.0278,-5.0191,-5.034,-5.029,-5.04,-5.0466,-5.0423,-5.0694,-5.0698,-5.0783,-5.0825,-5.0912,-5.0994,-5.103,0,0,-5.0253,-5.0232,-5.032,-5.0249,-5.0416,-5.032,-5.0501,-5.0548,-5.0539,-5.0646,-5.0652,-5.0793,-5.083,-5.0917,-5.1226,-5.1254,0,0,0,-5.0381,-5.0445,-5.0486,-5.0552,-5.0592,-5.0629,-5.0647,-5.0664,-5.0754,-5.0598,-5.0847,-5.0869,-5.0919,-5.0958,-5.0982,-5.1023,-5.0717,-5.0716,-5.0716,-5.0655,-5.0639,-5.0783,-5.0781,-5.0844,-5.0861,-5.091,-5.0935,-5.0899,-5.0958,-5.099,-5.1179,-5.1225,-5.1243,-5.1286,-5.1032,-5.1032,-5.1033,-5.1033,-5.0915,-5.1002,-5.0952,-5.1074,-5.1054,-5.1155,-5.1175,-5.1146,-5.1235,-5.1155,-5.1198,-5.1111,-5.1275,-5.1312,-5.104,-5.1039,-5.1038,-5.1037,-5.1037,-5.1093,-5.1131,-5.1151,-5.1242,-5.1314,-5.1306,-5.1394,-5.1373,-5.1353,-5.1396,-5.1426,-5.1424,-5.1419,-5.1412,-5.1412,-5.1413,-5.1414,-5.1414,-5.1415,-5.1268,-5.1287,-5.1366,-5.1419,-5.1457,-5.1505,-5.1521,-5.1557,-5.1591,-5.1568,-5.1568,-5.1526,-5.1295,-5.1237,-5.1425,-5.1423,-5.1422,-5.1421,-5.142,-5.1538,-5.1474,-5.1595,-5.1634,-5.1693,-5.1764,-5.1736,-5.1811,-5.1837,-5.1881,-5.1829,-5.1662,-5.1638,-5.1618,-5.157,-5.1833,-5.1833,-5.1833,-5.1833,-5.1687,-5.1673,-5.1792,-5.1854,-5.1913,-5.1899,-5.2033,-5.2047,-5.205,-5.2064,-5.2023,-5.1957,-5.1938,-5.1925,-5.1899,-5.1854,-5.2183,-5.2183,-5.2183,-5.1851,-5.1842,-5.1962,-5.1966,-5.2011,-5.2049,-5.2173,-5.2244,-5.2234,-5.2197,-5.2075,-5.206,-5.1953,-5.192,-5.1881,-5.184,-5.1757,0,0]}]]